TimeCET,TemperatureF,Dew PointF,Humidity,Sea Level PressureIn,VisibilityMPH,Wind Direction,Wind SpeedMPH,Gust SpeedMPH,PrecipitationIn,Events,Conditions,WindDirDegrees,DateUTC
12:00 AM,46.4,37.4,71,30.27,-9999.0,West,10.4,-,N/A,,Clear,280,2012-11-07 23:00:00
12:30 AM,44.6,37.4,76,30.30,-9999.0,WNW,13.8,-,N/A,,Clear,300,2012-11-07 23:30:00
1:00 AM,44.6,37.4,76,30.27,-9999.0,West,9.2,-,N/A,,Clear,280,2012-11-08 00:00:00
1:30 AM,44.6,39.2,81,30.27,-9999.0,WNW,8.1,-,N/A,,Clear,300,2012-11-08 00:30:00
2:00 AM,42.8,37.4,81,30.30,-9999.0,WSW,8.1,-,N/A,,Clear,250,2012-11-08 01:00:00
2:30 AM,44.6,37.4,76,30.30,6.2,West,6.9,-,N/A,,Scattered Clouds,260,2012-11-08 01:30:00
3:00 AM,44.6,39.2,81,30.30,-9999.0,WSW,5.8,-,N/A,,Clear,240,2012-11-08 02:00:00
3:30 AM,46.4,39.2,76,30.27,-9999.0,West,11.5,-,N/A,,Clear,280,2012-11-08 02:30:00
4:00 AM,46.4,39.2,76,30.30,-9999.0,West,13.8,-,N/A,,Clear,280,2012-11-08 03:00:00
4:30 AM,44.6,39.2,81,30.30,-9999.0,WNW,10.4,-,N/A,,Clear,290,2012-11-08 03:30:00
5:00 AM,44.6,39.2,81,30.27,6.2,WNW,15.0,-,N/A,,Mostly Cloudy,300,2012-11-08 04:00:00
5:30 AM,44.6,37.4,76,30.27,-9999.0,NW,10.4,-,N/A,,Clear,310,2012-11-08 04:30:00
6:00 AM,42.8,37.4,81,30.27,-9999.0,WNW,10.4,-,N/A,,Clear,290,2012-11-08 05:00:00
6:30 AM,41.0,37.4,87,30.27,-9999.0,West,5.8,-,N/A,,Clear,270,2012-11-08 05:30:00
7:00 AM,41.0,35.6,81,30.27,-9999.0,WSW,6.9,-,N/A,,Clear,240,2012-11-08 06:00:00
7:30 AM,42.8,37.4,81,30.27,-9999.0,WSW,5.8,-,N/A,,Clear,240,2012-11-08 06:30:00
8:00 AM,44.6,39.2,81,30.27,-9999.0,SSW,6.9,-,N/A,,Clear,210,2012-11-08 07:00:00
8:30 AM,48.2,39.2,71,30.27,-9999.0,SW,6.9,-,N/A,,Clear,220,2012-11-08 07:30:00
9:00 AM,48.2,39.2,71,30.27,-9999.0,SW,6.9,-,N/A,,Clear,230,2012-11-08 08:00:00
9:30 AM,50.0,39.2,66,30.27,-9999.0,WSW,8.1,-,N/A,,Clear,240,2012-11-08 08:30:00
10:00 AM,50.0,39.2,66,30.27,-9999.0,SW,8.1,-,N/A,,Clear,230,2012-11-08 09:00:00
10:30 AM,51.8,39.2,62,30.27,6.2,WSW,9.2,-,N/A,,Mostly Cloudy,240,2012-11-08 09:30:00
11:00 AM,51.8,39.2,62,30.24,6.2,SSW,9.2,-,N/A,,Scattered Clouds,210,2012-11-08 10:00:00
11:30 AM,53.6,39.2,58,30.24,6.2,SSW,11.5,-,N/A,,Scattered Clouds,210,2012-11-08 10:30:00
12:00 PM,53.6,37.4,54,30.24,6.2,SW,12.7,-,N/A,,Mostly Cloudy,220,2012-11-08 11:00:00
12:30 PM,55.4,39.2,54,30.21,6.2,SSW,12.7,-,N/A,,Scattered Clouds,210,2012-11-08 11:30:00
1:00 PM,55.4,37.4,51,30.21,6.2,SSW,12.7,-,N/A,,Scattered Clouds,210,2012-11-08 12:00:00
1:30 PM,57.2,39.2,51,30.18,-9999.0,SSW,13.8,-,N/A,,Clear,210,2012-11-08 12:30:00
2:00 PM,57.2,39.2,51,30.18,-9999.0,SSW,12.7,-,N/A,,Clear,210,2012-11-08 13:00:00
2:30 PM,55.4,41.0,58,30.18,-9999.0,South,11.5,-,N/A,,Clear,190,2012-11-08 13:30:00
3:00 PM,55.4,41.0,58,30.18,-9999.0,South,9.2,-,N/A,,Clear,190,2012-11-08 14:00:00
3:30 PM,53.6,41.0,62,30.15,-9999.0,SSW,9.2,-,N/A,,Clear,200,2012-11-08 14:30:00
4:00 PM,53.6,41.0,62,30.15,-9999.0,South,5.8,-,N/A,,Clear,190,2012-11-08 15:00:00
4:30 PM,50.0,41.0,71,30.15,-9999.0,Variable,2.3,-,N/A,,Clear,0,2012-11-08 15:30:00
5:00 PM,46.4,41.0,81,30.15,-9999.0,SSE,4.6,-,N/A,,Clear,160,2012-11-08 16:00:00
5:30 PM,46.4,41.0,81,30.15,-9999.0,SSE,5.8,-,N/A,,Clear,150,2012-11-08 16:30:00
6:00 PM,48.2,41.0,76,30.15,-9999.0,SSE,8.1,-,N/A,,Clear,160,2012-11-08 17:00:00
6:30 PM,48.2,41.0,76,30.15,-9999.0,SSE,8.1,-,N/A,,Clear,160,2012-11-08 17:30:00
7:00 PM,46.4,39.2,76,30.12,-9999.0,SE,5.8,-,N/A,,Clear,140,2012-11-08 18:00:00
7:30 PM,44.6,39.2,81,30.12,-9999.0,Variable,3.5,-,N/A,,Clear,0,2012-11-08 18:30:00
8:00 PM,42.8,39.2,87,30.12,-9999.0,SE,5.8,-,N/A,,Clear,130,2012-11-08 19:00:00
8:30 PM,44.6,39.2,81,30.12,-9999.0,SE,4.6,-,N/A,,Clear,130,2012-11-08 19:30:00
9:00 PM,42.8,37.4,81,30.09,-9999.0,Variable,3.5,-,N/A,,Clear,0,2012-11-08 20:00:00
9:30 PM,42.8,37.4,81,30.09,-9999.0,SSE,5.8,-,N/A,,Clear,160,2012-11-08 20:30:00
10:00 PM,39.2,35.6,87,30.09,-9999.0,Calm,Calm,-,N/A,,Clear,0,2012-11-08 21:00:00
10:30 PM,39.2,37.4,93,30.09,-9999.0,Variable,3.5,-,N/A,,Clear,0,2012-11-08 21:30:00
11:00 PM,39.2,35.6,87,30.09,-9999.0,Variable,3.5,-,N/A,,Clear,0,2012-11-08 22:00:00
11:30 PM,39.2,37.4,93,30.09,-9999.0,Variable,2.3,-,N/A,,Clear,0,2012-11-08 22:30:00